Location: Dvur Kralove nad Labem
(50.4330°N, 15.8170°E)
Time: 01:04:45
(UTC+01:00)

ISS - Visible Passes

Search period start: 21 November 2019 00:00
Search period end: 01 December 2019 00:00
Orbit: 412 x 421 km, 51.6° (Epoch: 21 November)

Date Brightness Start Highest point End Pass type
(mag) Time Alt. Az. Time Alt. Az. Time Alt. Az.
22 Nov -1.3 18:29:06 10° SSW 18:29:58 15° S 18:29:58 15° S visible
23 Nov -1.8 17:41:27 10° S 17:43:39 16° SE 17:43:45 16° SE visible
23 Nov -0.4 19:16:36 10° WSW 19:16:40 10° WSW 19:16:40 10° WSW visible
24 Nov -1.3 16:54:37 10° SSE 16:55:29 11° SE 16:56:22 10° ESE visible
24 Nov -2.2 18:28:21 10° SW 18:30:22 30° SSW 18:30:22 30° SSW visible
25 Nov -2.7 17:40:14 10° SW 17:43:16 33° SSE 17:44:00 29° ESE visible
25 Nov -0.5 19:16:28 10° W 19:16:55 13° W 19:16:55 13° W visible
26 Nov -2.1 16:52:18 10° SSW 16:55:00 23° SE 16:57:35 11° E visible
26 Nov -2.7 18:28:03 10° WSW 18:30:29 45° WSW 18:30:29 45° WSW visible
27 Nov -3.6 17:39:41 10° WSW 17:43:00 61° SSE 17:44:00 39° E visible
27 Nov -0.5 19:16:25 10° W 19:16:54 13° W 19:16:54 13° W visible
28 Nov -3.1 16:51:25 10° SW 16:54:37 44° SSE 16:57:29 12° E visible
28 Nov -2.7 18:27:56 10° W 18:30:23 45° W 18:30:23 45° W visible
29 Nov -3.8 17:39:27 10° WSW 17:42:49 86° NNW 17:43:51 42° ENE visible
29 Nov -0.4 19:16:19 10° W 19:16:44 13° WNW 19:16:44 13° WNW visible
30 Nov -3.7 16:51:00 10° WSW 16:54:20 78° SSE 16:57:17 13° ENE visible
30 Nov -2.6 18:27:50 10° W 18:30:11 41° WNW 18:30:11 41° WNW visible
